GosportINWX Station Historical Data
 
Daily Summary for June 25, 2019 Units:  English    Metric   Both
Daily Weekly Monthly Yearly Custom
  Current: High: Low: Average:
Temperature: 81 °F 82 °F 64 °F 70.7 °F
Dew Point: 59 °F 65 °F 59 °F 61.6 °F
Humidity: 47% 88% 47% 75%
Wind Speed: 4mph 5mph 0mph 1.6mph
Wind Gust: 9mph 15mph - -
WindSW - - WSW
Pressure: 29.94 in 29.97 in 29.78 in -
Precipitation: 0 in      
Historical Graphs
 
 
Tabular Data for June 25, 2019
Time Temperature Dew Point Pressure Wind Wind Speed Wind Gust Humidity Rainfall Rate (Hourly) solar
00:04 69 °F 64 °F 29.78 in Calm   3 mph 84% 0 in W/m2
00:09 69 °F 64 °F 29.78 in Calm   3 mph 84% 0 in W/m2
00:14 69 °F 64 °F 29.78 in Calm   3 mph 84% 0 in W/m2
00:19 69 °F 64 °F 29.78 in Calm   3 mph 84% 0 in W/m2
00:24 68 °F 63 °F 29.79 in Calm   3 mph 84% 0 in W/m2
00:29 68 °F 63 °F 29.79 in SW 1 mph 3 mph 84% 0 in W/m2
00:34 68 °F 64 °F 29.79 in Calm   3 mph 85% 0 in W/m2
00:39 68 °F 63 °F 29.8 in SW 1 mph 4 mph 85% 0 in W/m2
00:44 68 °F 63 °F 29.79 in SW 1 mph 4 mph 85% 0 in W/m2
00:49 68 °F 63 °F 29.79 in SW 1 mph 6 mph 85% 0 in W/m2
00:54 68 °F 63 °F 29.79 in Calm   6 mph 85% 0 in W/m2
00:59 68 °F 63 °F 29.8 in Calm   6 mph 85% 0 in W/m2
01:04 68 °F 63 °F 29.79 in Calm   3 mph 86% 0 in W/m2
01:09 68 °F 63 °F 29.8 in Calm   3 mph 86% 0 in W/m2
01:14 68 °F 63 °F 29.8 in Calm   3 mph 86% 0 in W/m2
01:19 67 °F 63 °F 29.8 in Calm   3 mph 86% 0 in W/m2
01:24 67 °F 63 °F 29.8 in Calm   3 mph 86% 0 in W/m2
01:29 67 °F 63 °F 29.8 in Calm   3 mph 86% 0 in W/m2
01:34 67 °F 63 °F 29.81 in Calm   3 mph 86% 0 in W/m2
01:39 67 °F 63 °F 29.81 in Calm   3 mph 87% 0 in W/m2
01:44 67 °F 63 °F 29.81 in Calm   3 mph 87% 0 in W/m2
01:49 67 °F 63 °F 29.81 in SW 1 mph 3 mph 87% 0 in W/m2
01:54 67 °F 63 °F 29.81 in Calm   3 mph 87% 0 in W/m2
01:59 67 °F 63 °F 29.81 in Calm   3 mph 87% 0 in W/m2
02:04 67 °F 63 °F 29.82 in Calm   3 mph 87% 0 in W/m2
02:09 67 °F 63 °F 29.82 in Calm   3 mph 87% 0 in W/m2
02:14 66 °F 62 °F 29.82 in Calm   3 mph 86% 0 in W/m2
02:19 66 °F 62 °F 29.82 in Calm   3 mph 86% 0 in W/m2
02:24 66 °F 62 °F 29.82 in Calm   3 mph 86% 0 in W/m2
02:29 66 °F 62 °F 29.82 in Calm     87% 0 in W/m2
02:34 66 °F 62 °F 29.82 in Calm     87% 0 in W/m2
02:39 66 °F 62 °F 29.83 in Calm     88% 0 in W/m2
02:44 66 °F 62 °F 29.83 in Calm   1 mph 88% 0 in W/m2
02:49 66 °F 62 °F 29.83 in Calm   4 mph 88% 0 in W/m2
02:54 66 °F 62 °F 29.83 in SW 2 mph 4 mph 88% 0 in W/m2
02:59 66 °F 62 °F 29.83 in Calm   4 mph 88% 0 in W/m2
03:04 66 °F 62 °F 29.83 in Calm   4 mph 88% 0 in W/m2
03:09 66 °F 62 °F 29.83 in Calm   3 mph 88% 0 in W/m2
03:14 66 °F 62 °F 29.83 in Calm   3 mph 87% 0 in W/m2
03:19 66 °F 62 °F 29.83 in SW 1 mph 4 mph 87% 0 in W/m2
03:24 66 °F 62 °F 29.83 in SW 1 mph 4 mph 87% 0 in W/m2
03:29 66 °F 62 °F 29.83 in Calm   4 mph 87% 0 in W/m2
03:34 66 °F 62 °F 29.83 in SW 1 mph 3 mph 87% 0 in W/m2
03:39 65 °F 61 °F 29.83 in Calm   3 mph 87% 0 in W/m2
03:44 65 °F 61 °F 29.83 in Calm   3 mph 87% 0 in W/m2
03:49 65 °F 61 °F 29.84 in Calm   3 mph 87% 0 in W/m2
03:54 65 °F 61 °F 29.84 in Calm   3 mph 87% 0 in W/m2
03:59 65 °F 61 °F 29.84 in Calm   3 mph 87% 0 in W/m2
04:04 65 °F 61 °F 29.85 in Calm   3 mph 87% 0 in W/m2
04:09 65 °F 61 °F 29.85 in Calm   3 mph 87% 0 in W/m2
04:14 65 °F 61 °F 29.84 in Calm   3 mph 87% 0 in W/m2
04:19 65 °F 61 °F 29.84 in Calm   4 mph 88% 0 in W/m2
04:24 65 °F 61 °F 29.84 in Calm   4 mph 88% 0 in W/m2
04:29 65 °F 61 °F 29.85 in SW 1 mph 4 mph 88% 0 in W/m2
04:34 65 °F 61 °F 29.85 in WSW 1 mph 4 mph 88% 0 in W/m2
04:39 65 °F 61 °F 29.85 in WSW 1 mph 4 mph 88% 0 in W/m2
04:44 65 °F 61 °F 29.85 in Calm   4 mph 88% 0 in W/m2
04:49 65 °F 61 °F 29.85 in Calm   3 mph 88% 0 in W/m2
04:54 65 °F 61 °F 29.85 in Calm   3 mph 88% 0 in W/m2
04:59 64 °F 61 °F 29.85 in Calm   1 mph 88% 0 in W/m2
05:04 64 °F 61 °F 29.85 in Calm   4 mph 88% 0 in W/m2
05:09 64 °F 61 °F 29.85 in Calm   4 mph 88% 0 in W/m2
05:14 64 °F 61 °F 29.85 in Calm   4 mph 88% 0 in W/m2
05:19 64 °F 60 °F 29.85 in Calm   3 mph 87% 0 in W/m2
05:24 64 °F 60 °F 29.86 in WSW 1 mph 3 mph 87% 0 in W/m2
05:29 64 °F 60 °F 29.86 in Calm   3 mph 87% 0 in W/m2
05:34 64 °F 60 °F 29.86 in Calm   3 mph 87% 0 in W/m2
05:39 64 °F 60 °F 29.85 in Calm   3 mph 87% 0 in W/m2
05:44 64 °F 60 °F 29.86 in Calm   3 mph 87% 0 in W/m2
05:49 64 °F 60 °F 29.86 in WSW 1 mph 3 mph 87% 0 in W/m2
05:54 64 °F 60 °F 29.86 in SW 1 mph 4 mph 87% 0 in W/m2
05:59 64 °F 60 °F 29.86 in SW 1 mph 4 mph 87% 0 in W/m2
06:04 64 °F 60 °F 29.86 in SW 3 mph 4 mph 87% 0 in W/m2
06:09 64 °F 60 °F 29.87 in SW 3 mph 4 mph 87% 0 in W/m2
06:14 64 °F 60 °F 29.87 in SW 1 mph 4 mph 87% 0 in W/m2
06:19 64 °F 60 °F 29.87 in SW 1 mph 4 mph 87% 0 in W/m2
06:24 64 °F 60 °F 29.88 in SW 1 mph 4 mph 87% 0 in W/m2
06:29 64 °F 60 °F 29.87 in SW 1 mph 4 mph 87% 0 in W/m2
06:34 64 °F 60 °F 29.88 in Calm   4 mph 87% 0 in W/m2
06:39 64 °F 60 °F 29.88 in SW 1 mph 4 mph 87% 0 in W/m2
06:44 64 °F 60 °F 29.88 in SW 1 mph 4 mph 87% 0 in W/m2
06:49 64 °F 60 °F 29.88 in SW 1 mph 4 mph 87% 0 in W/m2
06:54 64 °F 60 °F 29.88 in SW 1 mph 4 mph 87% 0 in W/m2
06:59 64 °F 60 °F 29.89 in SW 1 mph 4 mph 87% 0 in W/m2
07:04 64 °F 60 °F 29.89 in SW 1 mph 4 mph 87% 0 in W/m2
07:09 64 °F 60 °F 29.89 in SW 1 mph 4 mph 86% 0 in W/m2
07:14 64 °F 60 °F 29.89 in Calm   3 mph 86% 0 in W/m2
07:19 64 °F 60 °F 29.89 in SW 1 mph 3 mph 86% 0 in W/m2
07:24 64 °F 60 °F 29.9 in SW 1 mph 3 mph 86% 0 in W/m2
07:29 64 °F 60 °F 29.89 in SW 1 mph 4 mph 86% 0 in W/m2
07:34 64 °F 60 °F 29.9 in SW 1 mph 4 mph 86% 0 in W/m2
07:39 64 °F 60 °F 29.9 in SW 1 mph 4 mph 86% 0 in W/m2
07:44 64 °F 60 °F 29.91 in Calm   4 mph 86% 0 in W/m2
07:49 64 °F 60 °F 29.91 in SW 1 mph 4 mph 86% 0 in W/m2
07:54 64 °F 60 °F 29.91 in SW 1 mph 4 mph 86% 0 in W/m2
07:59 65 °F 61 °F 29.91 in SW 2 mph 6 mph 87% 0 in W/m2
08:04 65 °F 61 °F 29.91 in SW 3 mph 6 mph 87% 0 in W/m2
08:09 65 °F 61 °F 29.91 in SW 2 mph 6 mph 87% 0 in W/m2
08:14 65 °F 61 °F 29.91 in SW 1 mph 4 mph 87% 0 in W/m2
08:19 65 °F 61 °F 29.92 in SW 3 mph 6 mph 86% 0 in W/m2
08:24 66 °F 61 °F 29.92 in SW 2 mph 6 mph 86% 0 in W/m2
08:29 66 °F 61 °F 29.91 in SW 2 mph 6 mph 86% 0 in W/m2
08:34 66 °F 62 °F 29.92 in SW 2 mph 4 mph 86% 0 in W/m2
08:39 66 °F 61 °F 29.92 in SW 2 mph 6 mph 84% 0 in W/m2
08:44 66 °F 61 °F 29.92 in SW 2 mph 6 mph 84% 0 in W/m2
08:49 67 °F 62 °F 29.92 in SW 2 mph 6 mph 84% 0 in W/m2
08:54 67 °F 62 °F 29.92 in WSW 2 mph 6 mph 84% 0 in W/m2
08:59 67 °F 62 °F 29.93 in WSW 3 mph 6 mph 83% 0 in W/m2
09:04 67 °F 62 °F 29.93 in WSW 3 mph 6 mph 83% 0 in W/m2
09:09 68 °F 62 °F 29.93 in WSW 3 mph 6 mph 82% 0 in W/m2
09:14 68 °F 62 °F 29.93 in WSW 2 mph 6 mph 81% 0 in W/m2
09:19 68 °F 62 °F 29.93 in WSW 2 mph 6 mph 80% 0 in W/m2
09:24 68 °F 62 °F 29.93 in W 3 mph 6 mph 80% 0 in W/m2
09:29 69 °F 62 °F 29.93 in WSW 2 mph 6 mph 80% 0 in W/m2
09:34 69 °F 62 °F 29.94 in WSW 3 mph 6 mph 79% 0 in W/m2
09:39 69 °F 62 °F 29.94 in WSW 2 mph 6 mph 79% 0 in W/m2
09:44 70 °F 63 °F 29.94 in WSW 2 mph 6 mph 78% 0 in W/m2
09:49 70 °F 63 °F 29.94 in WSW 3 mph 7 mph 76% 0 in W/m2
09:54 71 °F 63 °F 29.94 in SW 3 mph 7 mph 75% 0 in W/m2
09:59 71 °F 63 °F 29.94 in WSW 2 mph 7 mph 74% 0 in W/m2
10:04 72 °F 63 °F 29.95 in WSW 2 mph 6 mph 73% 0 in W/m2
10:09 72 °F 63 °F 29.94 in WSW 3 mph 7 mph 72% 0 in W/m2
10:14 72 °F 62 °F 29.95 in SW 2 mph 7 mph 72% 0 in W/m2
10:19 72 °F 63 °F 29.95 in WSW 2 mph 7 mph 72% 0 in W/m2
10:24 73 °F 63 °F 29.95 in W 3 mph 6 mph 72% 0 in W/m2
10:29 73 °F 64 °F 29.95 in W 2 mph 7 mph 72% 0 in W/m2
10:34 74 °F 64 °F 29.95 in WSW 2 mph 7 mph 71% 0 in W/m2
10:39 74 °F 64 °F 29.96 in WSW 3 mph 9 mph 70% 0 in W/m2
10:44 74 °F 63 °F 29.95 in WSW 3 mph 9 mph 69% 0 in W/m2
10:49 74 °F 63 °F 29.95 in WSW 3 mph 9 mph 68% 0 in W/m2
10:54 75 °F 63 °F 29.96 in WSW 3 mph 9 mph 68% 0 in W/m2
10:59 75 °F 63 °F 29.95 in WSW 2 mph 9 mph 67% 0 in W/m2
11:04 75 °F 64 °F 29.95 in WSW 2 mph 9 mph 67% 0 in W/m2
11:09 76 °F 64 °F 29.96 in W 3 mph 9 mph 66% 0 in W/m2
11:14 76 °F 64 °F 29.96 in W 3 mph 9 mph 65% 0 in W/m2
11:19 76 °F 64 °F 29.95 in WSW 2 mph 9 mph 65% 0 in W/m2
11:24 77 °F 64 °F 29.95 in SW 2 mph 7 mph 65% 0 in W/m2
11:29 77 °F 64 °F 29.96 in WSW 3 mph 7 mph 64% 0 in W/m2
11:34 77 °F 64 °F 29.96 in W 4 mph 9 mph 62% 0 in W/m2
11:39 78 °F 63 °F 29.96 in WSW 2 mph 9 mph 60% 0 in W/m2
11:44 78 °F 64 °F 29.96 in WSW 2 mph 9 mph 61% 0 in W/m2
11:49 78 °F 64 °F 29.97 in WSW 3 mph 9 mph 61% 0 in W/m2
11:54 78 °F 63 °F 29.97 in SW 3 mph 9 mph 59% 0 in W/m2
11:59 78 °F 62 °F 29.96 in WSW 4 mph 11 mph 58% 0 in W/m2
12:04 78 °F 63 °F 29.96 in WSW 3 mph 11 mph 58% 0 in W/m2
12:09 79 °F 64 °F 29.96 in WSW 2 mph 11 mph 59% 0 in W/m2
12:14 79 °F 65 °F 29.96 in W 2 mph 11 mph 60% 0 in W/m2
12:19 80 °F 65 °F 29.96 in W 3 mph 7 mph 59% 0 in W/m2
12:24 80 °F 63 °F 29.97 in WSW 3 mph 7 mph 55% 0 in W/m2
12:29 80 °F 61 °F 29.97 in WSW 4 mph 9 mph 53% 0 in W/m2
12:34 79 °F 61 °F 29.97 in SW 3 mph 9 mph 53% 0 in W/m2
12:39 79 °F 62 °F 29.97 in WSW 2 mph 9 mph 54% 0 in W/m2
12:44 80 °F 62 °F 29.96 in W 2 mph 7 mph 55% 0 in W/m2
12:49 80 °F 62 °F 29.97 in WSW 2 mph 9 mph 54% 0 in W/m2
12:54 80 °F 61 °F 29.96 in SW 4 mph 11 mph 52% 0 in W/m2
12:59 80 °F 60 °F 29.97 in SSW 4 mph 11 mph 50% 0 in W/m2
13:04 80 °F 60 °F 29.97 in SW 3 mph 11 mph 51% 0 in W/m2
13:09 80 °F 60 °F 29.97 in WSW 2 mph 9 mph 50% 0 in W/m2
13:14 80 °F 61 °F 29.97 in WSW 2 mph 7 mph 51% 0 in W/m2
13:19 80 °F 61 °F 29.97 in SW 3 mph 7 mph 52% 0 in W/m2
13:24 80 °F 61 °F 29.97 in SW 3 mph 7 mph 51% 0 in W/m2
13:29 81 °F 60 °F 29.97 in SW 3 mph 7 mph 49% 0 in W/m2
13:34 81 °F 60 °F 29.96 in WSW 3 mph 9 mph 48% 0 in W/m2
13:39 81 °F 59 °F 29.96 in WSW 3 mph 9 mph 48% 0 in W/m2
13:44 81 °F 60 °F 29.96 in WSW 3 mph 9 mph 49% 0 in W/m2
13:49 81 °F 60 °F 29.96 in WSW 3 mph 9 mph 49% 0 in W/m2
13:54 81 °F 61 °F 29.96 in WSW 4 mph 15 mph 49% 0 in W/m2
13:59 81 °F 60 °F 29.95 in WSW 3 mph 15 mph 49% 0 in W/m2
14:04 81 °F 61 °F 29.95 in SW 2 mph 15 mph 50% 0 in W/m2
14:09 81 °F 62 °F 29.94 in SW 2 mph 7 mph 51% 0 in W/m2
14:14 81 °F 61 °F 29.94 in SW 3 mph 9 mph 50% 0 in W/m2
14:19 81 °F 60 °F 29.94 in SW 4 mph 12 mph 48% 0 in W/m2
14:24 81 °F 61 °F 29.95 in SSW 2 mph 12 mph 50% 0 in W/m2
14:29 81 °F 62 °F 29.94 in SW 2 mph 12 mph 50% 0 in W/m2
14:34 82 °F 62 °F 29.94 in SSW 4 mph 9 mph 51% 0 in W/m2
14:39 82 °F 62 °F 29.95 in S 3 mph 9 mph 51% 0 in W/m2
14:44 82 °F 62 °F 29.95 in SSW 3 mph 11 mph 50% 0 in W/m2
14:49 82 °F 62 °F 29.95 in SW 3 mph 11 mph 51% 0 in W/m2
14:54 82 °F 61 °F 29.96 in SW 5 mph 11 mph 49% 0 in W/m2
14:59 81 °F 59 °F 29.96 in SSW 4 mph 11 mph 47% 0 in W/m2
15:04 81 °F 60 °F 29.96 in SSW 3 mph 11 mph 48% 0 in W/m2
15:09 81 °F 60 °F 29.95 in SW 3 mph 9 mph 48% 0 in W/m2
15:14 81 °F 60 °F 29.95 in WSW 3 mph 9 mph 48% 0 in W/m2
15:19 81 °F 60 °F 29.95 in WSW 3 mph 12 mph 49% 0 in W/m2
15:24 81 °F 59 °F 29.95 in WSW 4 mph 12 mph 48% 0 in W/m2
15:29 81 °F 61 °F 29.95 in WSW 2 mph 12 mph 50% 0 in W/m2
15:34 81 °F 61 °F 29.95 in WSW 4 mph 12 mph 49% 0 in W/m2
15:39 81 °F 60 °F 29.95 in WSW 4 mph 9 mph 47% 0 in W/m2
15:44 81 °F 60 °F 29.95 in WSW 3 mph 9 mph 48% 0 in W/m2
15:49 81 °F 59 °F 29.94 in WSW 4 mph 9 mph 47% 0 in W/m2
15:50 81 °F 59 °F 29.94 in SW 4 mph 9 mph 47% 0 in W/m2
Gosport, Indiana, USA
Compliments of Weather Underground - 4 mb